Wind_Speed
24 24 24 23 24 22 22 21 20 22 27 36 42 43 43 42 38 33 31 42 42 47 43 40 36 34 32 27 26 27 23 17 23 28 33 35 35 28 24 20 17 15 14 15 6
21 24 26 26 25 25 25 23 23 23 22 23 32 38 41 42 39 30 33 34 38 38 50 46 44 38 37 32 27 27 21 17 24 29 37 38 37 29 26 20 18 17 9 13 4
19 19 22 25 25 26 27 26 22 20 22 22 22 30 37 40 40 37 30 28 30 31 41 48 46 44 41 35 28 25 17 21 25 31 42 42 37 32 31 28 25 24 16 3 6
19 19 19 20 22 23 23 24 24 24 21 19 21 21 29 34 37 37 32 28 28 27 31 38 39 39 43 38 30 26 24 27 29 37 49 44 39 35 34 34 31 25 22 10 7
21 20 19 19 20 21 21 23 24 24 21 21 19 20 23 27 33 38 31 28 26 26 25 27 31 32 37 36 32 26 28 28 32 42 49 49 41 38 39 37 34 31 25 16 9
23 22 20 19 20 20 21 23 23 24 25 24 19 19 17 26 36 29 33 28 27 24 25 28 29 33 34 33 28 28 33 31 34 42 48 50 47 42 42 39 37 33 25 19 12
25 23 22 21 20 19 20 20 21 22 22 22 19 16 18 30 30 29 29 28 28 26 28 28 28 29 30 30 29 30 30 31 29 38 46 54 51 47 45 41 37 31 26 23 19
25 24 23 22 20 19 19 19 19 20 20 18 19 17 20 19 29 32 33 29 29 30 28 27 28 28 28 28 28 26 27 27 28 33 43 49 49 49 45 41 37 33 30 27 23
26 25 23 23 22 20 20 18 18 18 19 18 20 17 16 17 26 34 35 32 32 30 28 28 27 26 28 28 27 26 24 25 29 35 41 45 48 46 44 43 41 38 34 30 31
24 25 24 23 22 21 20 19 17 16 17 19 21 20 18 21 18 31 37 33 32 30 28 27 26 25 23 21 20 21 24 28 32 36 40 44 45 47 46 43 39 35 34 35 33
24 23 24 23 22 21 21 18 16 13 15 17 18 21 22 19 18 21 33 35 36 31 27 27 27 22 20 21 25 28 29 33 34 37 39 40 37 46 43 42 33 29 30 30 30
26 24 23 22 23 22 19 17 14 12 13 15 17 17 19 18 18 19 29 32 30 28 27 26 22 26 30 27 28 30 31 31 32 32 31 32 36 39 41 39 33 34 30 24 19
26 26 23 22 23 22 18 15 13 12 16 15 15 16 19 20 18 18 17 25 27 27 24 26 30 30 28 31 28 28 30 29 29 31 31 33 34 36 35 36 34 34 23 17 17
26 26 25 24 22 22 18 15 13 13 14 14 15 16 17 22 20 23 22 25 26 26 24 26 28 28 31 33 32 31 30 29 29 28 27 34 34 32 33 30 31 27 20 12 17
30 26 26 26 22 22 16 14 14 16 13 14 15 19 21 19 18 20 24 24 25 24 23 26 27 27 32 33 34 32 29 22 22 26 29 28 30 32 31 32 25 19 20 14 18
33 29 26 27 26 22 15 18 16 16 15 13 14 18 21 22 20 22 22 25 28 33 32 32 30 30 39 33 33 31 29 22 25 29 31 31 34 34 33 30 25 24 20 23 20
37 33 26 28 28 23 19 19 20 18 17 15 13 18 23 23 23 24 27 33 38 38 37 34 31 33 39 34 34 34 30 24 30 31 34 35 36 35 35 35 32 30 30 29 31
37 35 29 29 29 26 24 23 21 19 19 16 15 19 26 27 26 31 37 39 39 37 38 36 33 34 35 33 31 25 24 26 26 29 32 32 35 35 35 34 35 35 37 39 38
35 33 29 28 31 28 27 26 17 21 21 21 21 26 28 30 29 38 43 38 34 30 27 34 32 27 34 32 30 28 25 25 24 25 25 27 29 29 27 28 29 30 32 32 30
28 29 27 28 29 28 30 24 22 25 25 26 26 28 30 34 33 42 43 41 37 30 28 28 27 24 25 29 34 38 34 24 21 22 24 26 28 25 25 26 29 29 32 35 38
25 26 26 28 27 28 27 24 23 27 30 30 32 30 32 33 35 37 40 40 38 36 36 33 31 29 24 25 22 20 19 24 24 27 29 29 27 26 26 28 26 27 28 29 29
22 24 25 26 25 26 26 27 30 33 33 31 32 31 31 33 35 36 38 37 43 40 41 36 34 27 26 21 23 23 23 26 29 27 31 33 31 29 28 28 28 28 29 29 29
21 22 25 24 24 25 24 24 25 28 28 28 29 30 31 32 34 37 33 39 32 41 39 36 32 31 28 28 30 29 29 29 29 28 30 34 34 34 32 32 33 32 32 33 34
18 21 26 25 21 20 22 22 25 25 25 25 25 26 29 29 29 31 30 32 36 40 35 36 39 38 34 25 25 27 27 30 32 34 36 38 39 40 41 38 37 37 36 34 35
15 20 23 25 23 22 20 19 20 21 22 22 22 22 24 25 21 19 23 27 39 39 39 41 28 27 24 27 30 32 34 37 39 41 42 44 45 44 45 45 42 40 39 39 39
12 16 19 16 22 18 24 22 19 14 14 14 16 17 18 21 24 24 21 23 19 40 40 38 34 36 37 36 35 35 36 41 46 49 48 48 46 41 41 41 41 41 41 39 38
10 14 13 12 15 14 15 15 9 7 10 12 13 14 15 17 21 24 30 30 28 26 25 16 25 27 34 29 32 36 40 46 47 47 42 40 41 42 40 39 40 43 45 44 42
Wind_Direction
281 274 271 270 271 271 274 278 279 274 264 253 249 248 244 242 242 246 245 240 245 238 236 237 240 243 243 242 242 244 241 235 225 226 232 240 248 252 244 242 244 246 260 249 241
294 278 269 269 269 270 269 274 277 275 274 270 255 247 243 238 236 239 240 238 241 241 233 235 239 246 239 240 241 243 242 232 225 218 224 235 245 250 258 256 259 262 255 227 180
297 291 277 268 268 270 272 266 272 277 274 273 267 252 242 239 236 232 236 232 239 239 231 232 241 247 236 240 243 241 234 229 222 214 214 229 241 239 247 253 251 251 215 218 166
300 294 285 273 269 270 268 260 267 273 275 272 271 265 242 236 232 229 231 232 233 242 231 229 235 235 231 241 241 233 226 229 220 208 210 224 235 239 246 245 249 254 256 249 222
302 298 290 280 274 269 264 260 264 266 265 271 273 268 245 232 230 225 226 230 228 227 233 229 227 228 232 233 233 223 222 225 222 211 211 222 234 240 243 247 250 258 268 273 275
301 298 294 288 279 273 267 265 265 260 260 263 265 256 250 222 227 217 218 224 223 225 225 224 221 222 225 227 225 217 221 223 224 213 212 219 229 237 242 242 249 256 271 279 273
300 295 292 290 286 281 275 270 266 261 262 259 254 257 243 226 227 216 217 221 222 224 222 220 220 222 223 221 220 221 224 229 230 221 215 220 227 234 241 245 251 260 270 273 281
304 298 293 286 284 283 278 274 268 262 259 250 250 260 232 234 223 218 217 219 219 220 222 223 226 225 224 224 226 227 231 235 232 229 220 225 227 232 241 249 254 257 263 269 275
307 303 298 290 282 279 280 275 273 265 259 244 245 240 237 240 225 219 221 218 219 220 221 225 228 233 234 232 232 234 235 230 227 226 224 230 229 231 236 244 251 255 259 264 266
304 302 300 294 288 280 278 278 276 270 263 251 242 228 234 241 243 223 219 219 221 222 223 226 228 230 229 226 231 228 221 220 226 224 225 231 229 229 232 240 245 250 256 261 259
299 299 295 294 292 285 281 281 283 279 267 259 248 235 235 243 238 230 219 215 219 224 226 229 233 236 223 215 213 209 214 220 224 225 229 233 239 234 233 237 242 253 252 252 254
295 296 292 287 287 287 282 280 284 275 252 246 242 236 231 227 233 229 218 218 219 225 230 233 233 222 213 203 206 209 213 221 226 234 237 239 242 243 240 243 243 249 238 246 260
289 290 289 286 278 281 283 276 271 271 254 242 237 228 222 211 217 219 214 215 217 220 221 222 222 218 213 199 199 206 209 220 225 229 236 232 236 239 242 242 231 227 231 251 272
284 282 283 282 278 274 274 268 261 258 254 248 232 217 214 210 207 206 205 211 212 210 211 217 221 210 207 201 200 206 209 219 219 217 216 218 224 222 219 222 227 233 235 240 258
285 278 275 273 271 270 271 262 249 248 250 244 225 210 205 205 210 209 203 204 198 202 204 202 205 205 201 200 202 202 202 204 204 209 211 217 223 229 234 235 244 249 253 245 267
284 277 266 264 261 265 259 242 237 238 242 241 233 208 198 200 197 202 210 191 178 178 186 193 199 195 187 196 200 203 209 210 200 205 212 220 229 236 242 246 242 250 253 238 259
279 275 263 256 253 253 244 238 232 231 232 232 224 217 196 193 199 198 194 189 185 185 194 201 200 198 198 202 207 209 214 223 218 215 221 226 236 238 239 248 252 255 243 248 259
271 270 263 247 247 242 236 235 227 217 221 220 210 209 196 190 193 185 173 180 190 194 196 199 201 200 204 207 217 219 220 230 235 235 237 241 245 249 249 253 256 258 259 260 264
262 261 253 243 240 235 233 231 217 213 215 207 198 196 194 194 197 188 184 185 193 201 201 210 214 217 219 217 223 215 211 226 237 245 251 255 258 264 262 265 265 265 267 270 271
247 246 240 234 232 229 229 224 209 206 207 208 204 203 200 201 198 193 193 194 197 200 206 218 216 220 229 232 234 237 223 225 235 246 248 252 255 265 257 266 268 267 265 264 265
234 232 227 224 221 222 226 220 207 207 209 208 209 211 208 205 207 202 204 205 206 212 217 217 221 222 226 236 242 251 244 243 250 253 265 263 268 269 258 261 263 265 262 260 260
217 218 214 218 212 211 212 210 206 211 215 213 211 214 215 215 218 215 209 208 211 215 214 214 217 221 233 233 248 255 257 256 259 269 271 271 274 278 274 270 268 267 265 264 263
206 206 203 203 208 207 210 213 214 218 218 215 218 218 221 220 228 227 225 231 227 223 224 209 214 224 228 231 238 252 255 257 261 262 269 275 279 276 269 268 270 269 268 266 263
194 193 195 197 201 196 199 206 210 217 219 221 223 222 229 229 235 239 241 234 236 241 250 232 211 220 226 235 251 259 261 262 264 269 277 280 284 283 278 272 269 269 267 266 266
184 182 190 194 192 195 194 196 210 216 222 227 229 227 230 231 230 245 239 241 236 247 247 225 215 220 227 235 239 242 248 259 265 269 273 279 282 281 279 277 273 271 271 269 267
171 169 185 192 187 205 196 195 209 224 234 243 244 246 244 246 242 240 260 250 266 239 240 206 207 211 219 221 230 244 254 261 264 269 275 281 282 278 276 274 272 271 269 268 268
144 153 167 163 189 159 124 166 191 216 235 240 246 246 244 243 248 244 246 255 262 264 261 243 256 240 230 242 253 258 260 264 268 271 272 269 271 272 271 271 274 274 272 272 269
Height
5813 5813 5812 5812 5811 5811 5811 5810 5809 5809 5809 5809 5810 5813 5816 5820 5825 5829 5833 5832 5837 5844 5848 5850 5853 5855 5859 5862 5865 5868 5872 5877 5878 5878 5876 5876 5876 5883 5889 5893 5894 5897 5898 5898 5897
5809 5807 5806 5806 5805 5805 5804 5804 5804 5803 5803 5802 5803 5804 5807 5812 5817 5823 5822 5825 5829 5834 5838 5841 5845 5849 5854 5856 5860 5863 5869 5873 5872 5874 5871 5870 5873 5878 5883 5887 5891 5895 5896 5894 5896
5804 5802 5800 5800 5799 5799 5798 5798 5798 5797 5797 5797 5796 5796 5799 5804 5810 5814 5817 5819 5822 5825 5828 5833 5837 5842 5847 5850 5855 5860 5866 5865 5866 5868 5867 5866 5871 5875 5878 5883 5887 5890 5894 5894 5894
5800 5798 5796 5794 5793 5792 5792 5792 5792 5791 5791 5791 5790 5790 5792 5796 5802 5805 5810 5814 5816 5818 5821 5826 5830 5833 5839 5844 5849 5854 5858 5858 5860 5861 5861 5862 5868 5873 5875 5878 5882 5884 5888 5891 5893
5796 5793 5791 5790 5788 5787 5786 5786 5786 5785 5785 5785 5785 5785 5786 5791 5793 5797 5804 5807 5810 5813 5816 5819 5823 5827 5832 5838 5842 5848 5850 5851 5852 5853 5857 5858 5863 5867 5869 5872 5876 5878 5884 5886 5890
5792 5789 5787 5785 5783 5782 5781 5780 5779 5779 5779 5780 5780 5781 5782 5785 5784 5793 5796 5802 5805 5808 5811 5815 5817 5820 5825 5831 5837 5841 5842 5845 5845 5848 5852 5855 5857 5861 5864 5869 5871 5875 5880 5884 5888
5786 5783 5781 5780 5778 5776 5775 5774 5773 5773 5773 5774 5775 5776 5776 5775 5781 5788 5793 5796 5800 5803 5805 5808 5811 5816 5821 5825 5829 5833 5838 5840 5844 5846 5849 5850 5853 5857 5858 5864 5868 5873 5878 5881 5883
5780 5778 5775 5773 5772 5771 5769 5768 5767 5767 5768 5769 5770 5771 5770 5773 5776 5781 5785 5789 5793 5796 5800 5804 5808 5812 5816 5821 5825 5830 5834 5838 5840 5843 5846 5846 5850 5855 5856 5860 5865 5870 5874 5877 5880
5775 5772 5769 5767 5766 5765 5764 5763 5762 5763 5763 5764 5765 5767 5768 5768 5770 5774 5779 5783 5787 5791 5796 5800 5805 5808 5813 5817 5821 5825 5830 5834 5835 5837 5841 5843 5846 5852 5854 5857 5861 5865 5870 5872 5874
5769 5766 5764 5761 5760 5759 5758 5758 5758 5758 5758 5758 5760 5763 5764 5764 5766 5768 5773 5779 5782 5787 5792 5797 5800 5804 5809 5813 5817 5820 5823 5826 5827 5831 5833 5836 5842 5846 5851 5854 5857 5861 5863 5865 5866
5762 5760 5758 5756 5753 5753 5753 5754 5755 5755 5754 5754 5755 5757 5759 5760 5763 5765 5769 5774 5777 5783 5789 5793 5796 5801 5804 5806 5808 5812 5813 5817 5820 5824 5829 5834 5839 5841 5846 5850 5854 5856 5856 5857 5859
5755 5753 5751 5749 5747 5746 5747 5748 5749 5748 5747 5747 5749 5751 5753 5756 5760 5761 5764 5771 5775 5779 5783 5789 5793 5794 5795 5799 5802 5805 5809 5814 5818 5822 5827 5830 5833 5836 5841 5845 5849 5850 5850 5851 5852
5747 5745 5744 5742 5740 5740 5741 5743 5744 5743 5742 5743 5744 5746 5749 5752 5755 5759 5762 5766 5771 5774 5779 5781 5784 5788 5792 5793 5797 5803 5807 5811 5815 5818 5821 5825 5827 5831 5837 5840 5842 5843 5846 5847 5847
5738 5737 5736 5735 5735 5734 5735 5737 5738 5737 5738 5740 5740 5742 5745 5746 5751 5754 5758 5763 5767 5771 5773 5776 5780 5784 5787 5790 5796 5802 5804 5808 5811 5814 5817 5820 5822 5826 5830 5833 5836 5839 5842 5843 5844
5728 5728 5727 5727 5727 5726 5731 5731 5732 5732 5733 5736 5736 5737 5739 5744 5749 5752 5754 5758 5763 5766 5772 5774 5777 5781 5785 5790 5794 5799 5801 5805 5808 5810 5813 5817 5821 5822 5825 5827 5832 5834 5834 5836 5838
5716 5717 5718 5718 5718 5721 5723 5723 5726 5729 5728 5730 5733 5734 5736 5739 5742 5747 5752 5756 5760 5763 5768 5771 5774 5779 5783 5787 5791 5795 5798 5802 5804 5807 5809 5812 5814 5816 5819 5824 5826 5828 5828 5830 5832
5703 5704 5708 5707 5709 5713 5715 5717 5720 5722 5724 5726 5729 5731 5733 5736 5739 5744 5748 5751 5754 5759 5764 5769 5773 5776 5780 5784 5786 5790 5794 5797 5801 5803 5805 5808 5809 5813 5816 5818 5820 5823 5825 5825 5826
5688 5690 5694 5697 5699 5703 5706 5710 5713 5717 5718 5721 5724 5728 5730 5733 5737 5741 5746 5750 5753 5757 5763 5766 5771 5773 5777 5781 5785 5788 5791 5793 5795 5799 5803 5804 5804 5809 5813 5813 5814 5816 5818 5819 5820
5673 5675 5679 5685 5688 5693 5697 5701 5709 5711 5713 5716 5720 5724 5728 5731 5735 5739 5743 5747 5752 5756 5761 5765 5768 5772 5775 5777 5781 5782 5785 5788 5791 5793 5795 5797 5800 5802 5804 5804 5805 5806 5807 5809 5811
5659 5661 5667 5673 5678 5684 5688 5695 5701 5704 5708 5712 5716 5720 5725 5728 5733 5737 5741 5745 5749 5752 5756 5760 5764 5766 5770 5773 5775 5777 5780 5783 5786 5788 5790 5791 5793 5795 5797 5797 5798 5799 5800 5802 5803
5646 5650 5656 5663 5670 5676 5682 5689 5694 5697 5702 5708 5711 5715 5721 5726 5730 5734 5737 5743 5746 5749 5751 5754 5757 5762 5765 5767 5770 5772 5774 5778 5781 5781 5783 5784 5787 5788 5790 5790 5790 5790 5791 5792 5793
5635 5642 5648 5655 5664 5669 5676 5681 5687 5689 5695 5702 5707 5712 5716 5721 5726 5732 5736 5739 5739 5743 5744 5749 5751 5756 5761 5762 5764 5766 5769 5771 5773 5776 5776 5776 5779 5780 5781 5782 5782 5782 5782 5783 5785
5629 5637 5644 5651 5657 5664 5671 5677 5682 5686 5692 5698 5703 5708 5711 5716 5721 5724 5729 5734 5734 5734 5738 5742 5745 5749 5751 5756 5758 5761 5764 5765 5767 5767 5767 5768 5772 5771 5772 5773 5773 5773 5773 5774 5775
5627 5634 5641 5649 5656 5662 5667 5673 5677 5682 5688 5693 5699 5705 5708 5713 5716 5719 5722 5725 5729 5730 5732 5735 5738 5742 5746 5751 5754 5754 5756 5757 5757 5758 5758 5758 5759 5759 5760 5762 5763 5763 5763 5763 5762
5627 5633 5640 5647 5654 5660 5665 5671 5675 5680 5685 5690 5695 5701 5705 5708 5712 5713 5716 5718 5724 5724 5726 5729 5730 5735 5738 5742 5744 5745 5746 5747 5748 5748 5748 5749 5748 5749 5748 5748 5751 5751 5752 5752 5752
5629 5636 5641 5646 5654 5659 5664 5670 5675 5679 5685 5689 5693 5697 5701 5704 5707 5710 5710 5714 5716 5718 5717 5719 5723 5725 5728 5730 5733 5737 5738 5738 5738 5738 5737 5737 5737 5738 5738 5737 5737 5738 5739 5740 5741
5635 5641 5646 5652 5655 5660 5663 5670 5676 5679 5683 5686 5689 5692 5695 5698 5700 5704 5706 5708 5711 5713 5713 5718 5719 5721 5723 5725 5726 5728 5729 5730 5729 5728 5727 5727 5727 5726 5726 5726 5725 5725 5725 5725 5727